{"data":{"norad_id":57255,"intl_designator":"2023-094AP","name":"STARLINK-5481","alt_names":[],"object_type":"PAYLOAD","status":"ACTIVE","operator":null,"country":"US","launch_date":"2023-07-07","launch_site_code":"AFWTR","launch_vehicle":null,"mission":null,"orbit_class":"UNKNOWN","rcs_meters":null,"size_class":null,"mass_kg":null,"dimensions":null,"purposes":["comms"],"wikipedia_slug":null,"has_3d_model":false,"image_url":null,"decayed_at":null,"tle_current":{"epoch":"2026-05-24T22:18:48.326400Z","epoch_age_seconds":81028,"freshness":"FRESH","line1":"1 57255U 23094AP  26144.92972600  .00000957  00000+0  44302-4 0  9991","line2":"2 57255  43.0017 308.9997 0001440 270.6584  89.4103 15.27579852158906","mean_motion":15.27579852,"eccentricity":0.000144,"inclination_deg":43.0017,"raan_deg":308.9997,"arg_perigee_deg":270.6584,"mean_anomaly_deg":89.4103,"bstar":4.4302e-5,"rev_number":15890,"period_min":94.266757846712,"perigee_km":482.06152834329,"apogee_km":484.03755006658,"semimajor_km":6861.1865392049,"source":"CELESTRAK","updated_at":"2026-05-25T13:38:18.279487Z"}}}